ATLAS 5 CENTAUR DEB, 46647

Orbit data source: Space-Track

ATLAS 5 CENTAUR DEB, 46647 is space debris in HEO originally from a launch on Wed, 17 Sep 2014 UTC launched from the Air Force Eastern Test Range (AFETR). Debris objects in space refer to the collection of defunct objects orbiting the Earth. Examples of debris include non-operational satellites, rocket bodies, and fragments generated from explosions, collisions, or faulty payload assembly.

Loading next visibility...
Identifier
46647, 2014-055CX
Orbit
HEO
Country
Flag of USUS
Related business
Flag of USUnited Launch Alliance/Lockheed Martin (US)
Manufacturer
Unknown
Mission
Spacecraft
Bus & Motor
Unknown
Mass
Unknown
Launch date (UTC)
2014-09-17 (11 years ago)
Launch vehicle
Unknown
Launch site
Air Force Eastern Test Range (AFETR)
Object type
Payload
Rocket body
Debris
Shape & HBR
Unknown shape, 1.1 m
Radar Cross Section
RCS unknown

Expand to show TLE details & history
Last TLE update: 16 hours ago

TLE from 16 hours ago
0 ATLAS 5 CENTAUR DEB
1 46647U 14055CX  26072.86124709 -.00000043  00000-0  00000-0 0  9994
2 46647  19.7814 156.3736 4822041 141.1046 265.9653  1.84054410 36426
Epoch: 2026-03-13T20:40Z
TLE epoch observation values (Epoch: 2026-03-13T20:40:11.748Z)
Latitude
-0.00002°
Longitude
34.81303°
Altitude
28,203.283 km
Speed
2.98 km/s
True Right ascension
10h 25m 24s
True Declination
0° 00' 00"
Sunlit
Object was in daylight at epoch
Visualization orbit readout
Latitude
Unknown
Longitude
Unknown
Altitude
Unknown
Speed
Unknown
Apparent Right ascension
Unknown
Apparent Declination
Unknown
Sunlit
N/A
Visualization observer readout
Local Sidereal Time
16:58:09
Azimuth
Unknown
Elevation
Unknown
Doppler factor
Unknown
Orbital elements
Apogee altitude
35,312.873 km
Perigee altitude
8,186.277 km
Semi-major axis
28,127.712 km
Eccentricity
0.4822
Inclination
19.7814°
RAAN
156.3736°
Arg. of periapsis
141.1046°
True anomaly
218.85457°
Mean anomaly
265.9653°
Eccentric anomaly
241.65056°
Mean motion
0.46009 °/min
Orbital period
782.46 mins
BSTAR
0
Loading maneuver chart data...
Computing Atmospheric mass density...

Documentation

Showing up to 5 results
|